Regional Weather Roundup
Issued by NWS

Home | Current Version | Previous Version | Text Only | Print | Product List | Glossary Off
Versions: 1 2 3 4 5 6 7 8 9 10 11 12 13 14 15 16 17 18 19 20 21 22 23 24 25 26 27 28 29 30 31 32 33 34 35 36 37 38 39 40 41 42 43 44 45 46 47 48 49 50

000
ASUS45 KTFX 130510
RWRMT
MONTANA REGIONAL WEATHER ROUNDUP
NATIONAL WEATHER SERVICE GREAT FALLS MT
1000 PM MST FRI FEB 12 2016

NOTE: "FAIR" INDICATES FEW OR NO CLOUDS BELOW 12000 FEET WITH NO
SIGNIFICANT WEATHER AND/OR OBSTRUCTIONS TO VISIBILITY.

MTZ001>007-043-130600-
WEST OF THE DIVIDE

CITY           SKY/WX    TMP DP  RH WIND       PRES   REMARKS
KALISPELL      FOG       34  34 100 CALM      30.03F VSB 1/4
MISSOULA       CLOUDY    37  35  92 VRB3      30.07F
BUTTE          CLOUDY    33  29  85 CALM      30.09F
MULLAN PASS    CLOUDY    34  32  92 S9        30.03F WCI  27
ANACONDA         N/A     37  30  75 SW5       30.07F
DEER LODGE       N/A     36  34  93 CALM      30.08F
HAMILTON         N/A     39  39 100 CALM      30.07S
PLAINS           N/A     41  38  89 CALM      30.06F
$$

MTZ008-052>055-130600-
SOUTHWEST MONTANA

CITY           SKY/WX    TMP DP  RH WIND       PRES   REMARKS
BOZEMAN        CLOUDY    31  29  92 NW3       30.07F
DILLON         CLOUDY    36  24  62 S7        30.09F WCI  30
ENNIS          CLEAR     39  19  45 S21       30.16F WCI  29
TWIN BRIDGES     N/A     33  24  70 E6        30.07F WCI  27
$$

MTZ009-010-012-014-046-048-049-054-130600-
EAST SLOPES AND CENTRAL MONTANA

CITY           SKY/WX    TMP DP  RH WIND       PRES   REMARKS
CUT BANK       PTCLDY    44  34  67 SW10      29.94F
GREAT FALLS    CLOUDY    44  32  62 SW13      29.97F
MALMSTROM AFB  CLOUDY    40  33  76 SW14      29.97F
HELENA         PTCLDY    36  32  85 CALM      30.04F
CHOTEAU          N/A     50  30  46 SW9       29.96F
CONRAD           N/A     25  25 100 E2        29.98F
$$

MTZ011-013-016-021-045-047-050-051-130600-
NORTH CENTRAL MONTANA

CITY           SKY/WX    TMP DP  RH WIND       PRES   REMARKS
HAVRE          CLOUDY    23  22  96 E7        30.01F WCI  15
LEWISTOWN      CLOUDY    43  32  65 SW12      30.00F
N BAR RANCH      N/A     34  30  86 NW7       30.02F WCI  28
CHINOOK          N/A     23  21  93 E12       30.03F WCI  12
$$

MTZ017>020-022>027-061-062-130600-
NORTHEAST MONTANA

CITY           SKY/WX    TMP DP  RH WIND       PRES   REMARKS
GLASGOW        CLOUDY    18  13  80 E22       30.13F WCI   1
JORDAN           N/A     27  24  89 E10       30.08F WCI  17
SIDNEY         CLOUDY    16   9  73 SE12      30.31F WCI   3
WOLF POINT     LGT SNOW  18  13  80 E14       30.24F WCI   4
PLENTYWOOD       N/A     10   7  85 SE17      30.28F WCI  -7
POPLAR           N/A     16  10  79 E13G18    30.26F WCI   2
SCOBEY           N/A     13   1  58 SE14      30.18F WCI  -2
$$

MTZ028>42-056>058-130600-
SOUTHCENTRAL AND SOUTHEAST MONTANA

CITY           SKY/WX    TMP DP  RH WIND       PRES   REMARKS
BAKER          CLOUDY    20  14  77 SE18      30.21F WCI   5
BILLINGS       CLOUDY    34  30  85 CALM      30.05F
LIVINGSTON     CLOUDY    50  18  28 SW23G33   30.04F
MILES CITY     CLOUDY    30  25  81 SE15      30.13F WCI  19
EKALAKA          N/A     22  17  81 E21       30.08F WCI   7
FORSYTH          N/A     34  28  80 E6        30.08F WCI  29
LAUREL           N/A     32  24  72 CALM      30.03F
ROUNDUP          N/A     36  29  76 W7        29.95F WCI  30
$$

REGIONAL REPORTS...DAKOTAS

CITY           SKY/WX    TMP DP  RH WIND       PRES   REMARKS
WILLISTON      LGT SNOW  11   5  77 SE10      30.35F WCI  -3
MINOT          CLOUDY     5  -6  60 SE8       30.49F WCI  -8
DICKINSON      CLOUDY    10   4  76 SE17      30.31S WCI  -8
BEACH          CLOUDY    16  14  93 SE17      30.26F WCI   0
CROSBY           N/A      9   1  72 SE14G22   30.39F WCI  -8
TIOGA          MOCLDY     7   1  78 SE18      30.41F WCI -12
WATFORD CITY   LGT SNOW  10   5  79 SE12      30.36F WCI  -4
BISMARCK       CLOUDY     3  -5  69 E8        30.52F WCI -10
GRAND FORKS    CLOUDY    -6 -12  75 CALM      30.67S
FARGO          CLOUDY    -6 -13  71 NW5       30.68R
BUFFALO SD       N/A     20  15  81 SE18      30.18F WCI   5
RAPID CITY     CLOUDY    24  22  91 SE13      30.26F WCI  12
$$

REGIONAL REPORTS...WYOMING/IDAHO/WASHINGTON

CITY           SKY/WX    TMP DP  RH WIND       PRES   REMARKS
GILLETTE       CLOUDY    31  28  89 S26       30.12S WCI  17
SHERIDAN       CLOUDY    31  27  85 NW6       30.09R WCI  25
BUFFALO WY     CLOUDY    37  29  72 S6        30.10S
CODY           CLOUDY    45  25  45 S6        30.09F
YELLOWSTONE LA   N/A     27  18  69 CALM      30.26F
IDAHO FALLS    CLOUDY    26  22  84 CALM      30.25F
SALMON         CLOUDY    28  27  93 CALM      30.18S
BOISE          CLOUDY    39  34  82 CALM      30.20F
SPOKANE        CLOUDY    42  40  92 S14       30.08F
$$

REGIONAL REPORTS...ALBERTA

CITY           SKY/WX    TMP DP  RH WIND       PRES   REMARKS
EDMONTON       CLOUDY    18  12  79 E7        29.89F WCI   8
CALGARY        FOG       28  27  93 SW7       29.81F VSB 1/4 WCI  21
LETHBRIDGE     PTCLDY    36  30  80 S17       29.86F WCI  25
MEDICINE HAT   PTCLDY    28  27  93 CALM      29.88F
WATERTON GATE    N/A     43  32  65 SW26G36     N/A
CARDSTON         N/A     45  32  61 SW10        N/A
MILK RIVER       N/A     30  28  93 S10         N/A  WCI  21
ONEFOUR          N/A     25  23  93 E12         N/A  WCI  14
$$

REGIONAL REPORTS...SASKATCHEWAN

CITY           SKY/WX    TMP DP  RH WIND       PRES   REMARKS
SWIFT CURRENT  LGT SNOW  16  12  86 SE25      30.03F WCI  -3
REGINA         CLOUDY     7   0  72 SE23      30.32F WCI -14
SASKATOON      MOCLDY     5   0  78 SE17      30.23F WCI -14
CYPRESS HILLS    N/A     16  12  86 S3          N/A
VAL MARIE        N/A     18  14  86 SE13G18     N/A  WCI   4
ROCKGLEN         N/A     10   9  92 SE15G21     N/A  WCI  -6
ASSINIBOIA       N/A     14  10  85 SE12G17     N/A  WCI   0
$$




USA.gov is the U.S. government's official web portal to all federal, state and local government web resources and services.